カタログに戻る

CZ-6A DEB

運用中PO
NORAD 64649·DEBRIS·🇨🇳 China

打ち上げ Aug 6, 2024 から Taiyuan Satellite Launch Center

Loading…

次のパス (今後24時間)

TLE

最新Source: Space-Track

元期: Sep 14, 2026, 10:19 UTC

1 64649U 24140AEP 26257.43021485  .00003920  00000-0  92097-3 0  9993
2 64649  88.9174 252.8594 0054910 356.6772   3.4064 14.53348471102233

AllMySatでCZ-6A DEBをリアルタイム追跡

Download on the App Store